sat.trackr.live / text

‹ back to catalog

STARLINK-30125

NORAD 56701 · 2023-067P

PAYLOAD ACTIVE UNKNOWN

§ Identity

Operator
Country
US
Launch date
2023-05-19
Launch site
AFETR
Launch vehicle
Mass (kg)
RCS (m²)

Purposes: comms

External: N2YO · Heavens-Above · Gunter

§ Orbital elements

Epoch: 2026-09-20T05:44:13.066368Z

Period
94.27 min
Inclination
43.0037°
Eccentricity
0.0001689
Mean motion
15.27574741 rev/d
Perigee alt
481.9 km
Apogee alt
484.2 km
Semi-major
6,861.2 km
B*
8.2962e-5
RAAN
252.3755°
Arg perigee
288.0091°
Mean anomaly
72.0577°
Rev number
18,545

§ Raw data

STARLINK-301251 56701U 23067P   26263.23904012  .00002021  00000+0  82962-4 0  99922 56701  43.0037 252.3755 0001689 288.0091  72.0577 15.27574741185453

JSON: /api/v1/satellites/56701 · /tle

For live sub-satellite position, see the globe view (requires WebGL).

§ Visibility from observer

Set your observer location to see the next 7 days of passes ≥ 10°. The values pass through the URL so the page stays shareable.

No JS? Fill the form by hand. The geolocation button needs JavaScript.